Overview Statistics Trail Chart Weather Telemetry Raw packets
 

This is the latest recevied weather packets stored in our database for station/object EA5GTE-12. If no packets are shown the sender has not sent any weather packets the latest 10 day(s).

<< 1 2 3 4 5 >>
Time Temp. Humidity Pressure Rain* Wind** Luminosity Snow
1788596637 35° C 40% 945.5 hPa - - - -
1788595737 33.33° C 46% 945.4 hPa - - - -
1788594837 31.11° C 53% 945.4 hPa - - - -
1788593937 35° C 42% 945.4 hPa - - - -
1788593037 31.11° C 58% 945.6 hPa - - - -
1788592137 26.67° C 79% 945.6 hPa - - - -
1788591237 26.11° C 84% 945.5 hPa - - - -
1788590336 26.67° C 82% 945.3 hPa - - - -
1788589436 24.44° C 97% 945.3 hPa - - - -
1788588536 20° C 100% 945.5 hPa - - - -
1788587636 18.33° C 100% 945.5 hPa - - - -
1788586736 17.22° C 100% 945.2 hPa - - - -
1788585836 17.78° C 100% 944.9 hPa - - - -
1788584936 17.22° C 100% 944.9 hPa - - - -
1788584036 18.33° C 100% 944.7 hPa - - - -
1788583136 18.33° C 100% 944.6 hPa - - - -
1788581337 18.33° C 100% 944.8 hPa - - - -
1788580437 19.44° C 100% 944.8 hPa - - - -
1788579537 18.89° C 100% 945 hPa - - - -
1788578637 18.89° C 100% 944.9 hPa - - - -
1788577737 19.44° C 100% 944.9 hPa - - - -
1788576837 20° C 100% 944.7 hPa - - - -
1788575937 20° C 100% 944.7 hPa - - - -
1788575037 20.56° C 100% 944.6 hPa - - - -
1788574137 20.56° C 100% 944.6 hPa - - - -

* Rain since midnight (hover to see other rain measurements)
** Current wind speed in m/s (hover to see current wind gust speed)